Regional Weather Roundup
Issued by NWS

Home | Current Version | Previous Version | Graphics & Text | Print | Product List | Glossary On
Versions: 1 2 3 4 5 6 7 8 9 10 11 12 13 14 15 16 17 18 19 20 21 22 23 24 25 26 27 28 29 30 31 32 33 34 35 36 37 38 39 40 41 42 43 44 45 46 47 48 49 50
092
ASUS44 KLIX 260307
RWRLA
LOUISIANA WEATHER ROUNDUP
NATIONAL WEATHER SERVICE NEW ORLEANS LA
1000 PM CDT WED MAR 25 2015

NOTE: "FAIR" INDICATES FEW OR NO CLOUDS BELOW 12,000 FEET WITH NO
      SIGNIFICANT WEATHER AND/OR OBSTRUCTIONS TO VISIBILITY.
      SKY/WX - SKY CONDITION AND SIGNIFICANT WEATHER.
      TMP - AIR TEMPERATURE.    DP   - DEWPOINT TEMPERATURE.
      RH  - RELATIVE HUMIDITY.  PRES - PRESSURE.
      HX  - HEAT INDEX.         WCI  - WIND CHILL INDEX.

*  THESE STATIONS ARE NOT NWS OR FAA STATIONS AND ARE NOT UNDER
   NWS QUALITY CONTROL.

LAZ040-048-061>063-065-066-069-260400-
SOUTHEAST LOUISIANA

CITY           SKY/WX    TMP DP  RH WIND       PRES   REMARKS
N.O. AUDUBON   NOT AVBL
N.O. INTL ARPT FAIR      67  59  75 SE6       30.00S
N.O. LAKEFRONT FAIR      70  61  73 SE9       30.01R
SLIDELL        FAIR      65  60  84 S5        30.00R
BATON ROUGE    FAIR      68  57  68 SE6       29.97S
BOOTHVILLE     FAIR      64  61  90 SE5       30.02S
BELLE CHASSE   MOCLDY    68  62  81 SE5       29.99S
BOGALUSA*        N/A     68  59  73 S3        30.02R
GALLIANO*      FAIR      69  65  85 CALM      30.00S
NEW ROADS*     FAIR      67  51  56 S3        29.97R
GONZALES*      FAIR      68  60  75 SE3       29.99R
HAMMOND*       FAIR      66  59  77 SE5       30.01S
HOUMA*         FAIR      64  61  88 SE5       29.99S
PORT FOURCHON* CLEAR     72  64  78 E9        30.03S

$$

LAZ041-044-053-054-260400-
SOUTHWEST LOUISIANA

CITY           SKY/WX    TMP DP  RH WIND       PRES   REMARKS
LAKE CHARLES   FAIR      64  61  90 S6        29.96S
LAFAYETTE      FAIR      68  61  78 S5        29.97S
PATTERSON      FAIR      66  59  77 SE6       29.99R
SALT POINT       N/A     66  62  87 E3        29.97S
NEW IBERIA     FAIR      67  62  84 S6        29.98S
CHENAULT AIRPK CLEAR     61  59  94 S6        29.97S

$$

LAZ027-028-260400-
CENTRAL LOUISIANA

CITY           SKY/WX    TMP DP  RH WIND       PRES   REMARKS
FORT POLK      FAIR      66  60  80 S10       29.94R
ALEXANDRIA INT FAIR      66  58  75 S7        29.93R
ALEXANDRIA     FAIR      66  57  72 SW6       29.94R

$$

LAZ001-002-260400-
NORTHWEST LOUISIANA

CITY           SKY/WX    TMP DP  RH WIND       PRES   REMARKS
SHREVEPORT     FAIR      71  56  58 S15       29.85F
BARKSDALE AFB  FAIR      71  56  61 S15       29.85F
DTN SHREVEPORT FAIR      71  55  56 S15G23    29.85F

$$

LAZ014-016-260400-
NORTHEAST LOUISIANA

CITY           SKY/WX    TMP DP  RH WIND       PRES   REMARKS
MONROE         FAIR      68  56  65 S9        29.89F
TALLULAH       FAIR      71  55  56 S10       29.92S

$$




USA.gov is the U.S. government's official web portal to all federal, state and local government web resources and services.